TimeCST,TemperatureF,Dew PointF,Humidity,Sea Level PressureIn,VisibilityMPH,Wind Direction,Wind SpeedMPH,Gust SpeedMPH,PrecipitationIn,Events,Conditions,WindDirDegrees,DateUTC
12:53 AM,30.9,26.1,82,30.31,10.0,Calm,Calm,-,N/A,,Clear,0,2013-03-07 06:53:00
1:53 AM,27.0,24.1,89,30.30,10.0,NNW,4.6,-,N/A,,Clear,330,2013-03-07 07:53:00
2:53 AM,28.9,26.1,89,30.29,10.0,ESE,3.5,-,N/A,,Clear,110,2013-03-07 08:53:00
3:53 AM,28.0,25.0,88,30.31,10.0,Calm,Calm,-,N/A,,Clear,0,2013-03-07 09:53:00
4:53 AM,30.0,27.0,88,30.31,10.0,Calm,Calm,-,N/A,,Clear,0,2013-03-07 10:53:00
5:53 AM,30.0,26.1,85,30.35,10.0,WNW,4.6,-,N/A,,Clear,300,2013-03-07 11:53:00
6:53 AM,30.9,26.1,82,30.35,9.0,Calm,Calm,-,N/A,,Clear,0,2013-03-07 12:53:00
7:53 AM,33.1,28.0,82,30.35,9.0,North,4.6,-,N/A,,Clear,360,2013-03-07 13:53:00
8:53 AM,36.0,28.0,73,30.37,10.0,North,4.6,-,N/A,,Clear,350,2013-03-07 14:53:00
9:53 AM,39.9,28.0,63,30.36,10.0,Variable,3.5,-,N/A,,Clear,0,2013-03-07 15:53:00
10:53 AM,44.1,27.0,51,30.35,10.0,Calm,Calm,-,N/A,,Clear,0,2013-03-07 16:53:00
11:53 AM,48.0,26.1,42,30.33,10.0,NW,4.6,-,N/A,,Clear,320,2013-03-07 17:53:00
12:53 PM,51.1,27.0,39,30.30,10.0,WNW,5.8,-,N/A,,Clear,300,2013-03-07 18:53:00
1:53 PM,54.0,27.0,35,30.28,10.0,NNW,5.8,-,N/A,,Clear,330,2013-03-07 19:53:00
2:53 PM,57.0,27.0,32,30.27,10.0,NNW,3.5,-,N/A,,Clear,340,2013-03-07 20:53:00
3:53 PM,57.0,27.0,32,30.27,10.0,NNW,8.1,-,N/A,,Clear,330,2013-03-07 21:53:00
4:53 PM,55.0,28.9,37,30.28,10.0,North,8.1,-,N/A,,Clear,350,2013-03-07 22:53:00
5:53 PM,48.0,30.0,50,30.29,10.0,North,5.8,-,N/A,,Clear,350,2013-03-07 23:53:00
6:53 PM,45.0,30.9,58,30.30,10.0,North,8.1,-,N/A,,Clear,10,2013-03-08 00:53:00
7:53 PM,45.0,30.9,58,30.30,10.0,North,4.6,-,N/A,,Clear,10,2013-03-08 01:53:00
8:53 PM,44.1,30.9,60,30.30,10.0,North,5.8,-,N/A,,Clear,10,2013-03-08 02:53:00
9:53 PM,42.1,30.9,65,30.29,10.0,Calm,Calm,-,N/A,,Clear,0,2013-03-08 03:53:00
10:53 PM,41.0,30.9,67,30.29,10.0,NE,3.5,-,N/A,,Clear,40,2013-03-08 04:53:00
11:53 PM,37.9,30.0,73,30.29,10.0,Calm,Calm,-,N/A,,Clear,0,2013-03-08 05:53:00